| time (UTC) | temp F | wind direction | speed MPH | gust MPH | rain 1hr in | rain 24hr in | rain mn in | humidity % | barometer mb |
| 20260508085139 | 36 | 0 | 0.0 | 0.0 | 0.00 | 0.04 | 0.04 | 99 | 1010.8 |
| 20260508084701 | 36 | 0 | 0.0 | 0.0 | 0.00 | 0.04 | 0.04 | 99 | 1010.8 |
| 20260508083700 | 36 | 0 | 0.0 | 0.0 | 0.00 | 0.04 | 0.04 | 99 | 1010.8 |
| 20260508082703 | 37 | 0 | 0.0 | 0.0 | 0.00 | 0.04 | 0.04 | 98 | 1010.7 |
| 20260508081702 | 37 | 0 | 0.0 | 0.0 | 0.00 | 0.04 | 0.04 | 98 | 1010.7 |
| 20260508080702 | 37 | 0 | 0.0 | 2.0 | 0.00 | 0.04 | 0.04 | 98 | 1010.6 |
| 20260508075701 | 38 | 0 | 0.0 | 2.0 | 0.00 | 0.04 | 0.04 | 97 | 1010.6 |
| 20260508074703 | 38 | 0 | 0.0 | 1.0 | 0.00 | 0.04 | 0.04 | 97 | 1010.7 |
| 20260508073701 | 39 | 0 | 0.0 | 0.0 | 0.00 | 0.04 | 0.04 | 97 | 1010.6 |
| 20260508073145 | 39 | 0 | 0.0 | 0.0 | 0.00 | 0.04 | 0.04 | 96 | 1010.4 |
| 20260508072913 | 39 | 0 | 0.0 | 0.0 | 0.00 | 0.04 | 0.04 | 96 | 1010.4 |
| 20260508072623 | 39 | 0 | 0.0 | 0.0 | 0.00 | 0.04 | 0.04 | 95 | 1010.5 |
| 20260508071913 | 39 | 0 | 0.0 | 0.0 | 0.00 | 0.04 | 0.04 | 95 | 1010.5 |
| 20260508070701 | 39 | 0 | 0.0 | 2.0 | 0.00 | 0.04 | 0.04 | 94 | 1010.5 |
| 20260508065701 | 40 | 0 | 0.0 | 2.0 | 0.00 | 0.04 | 0.04 | 93 | 1010.7 |
| 20260508064701 | 40 | 0 | 1.0 | 4.0 | 0.00 | 0.04 | 0.04 | 92 | 1010.7 |
| 20260508063701 | 39 | 332 | 1.0 | 4.0 | 0.03 | 0.03 | 0.03 | 93 | 1011.2 |
| 20260508062701 | 39 | 0 | 0.0 | 0.0 | 0.03 | 0.03 | 0.03 | 92 | 1011.1 |
| 20260508062141 | 40 | 0 | 0.0 | 0.0 | 0.03 | 0.03 | 0.03 | 92 | 1011.0 |
| 20260508061702 | 40 | 0 | 0.0 | 0.0 | 0.03 | 0.03 | 0.03 | 92 | 1011.0 |
| 20260508060702 | 40 | 0 | 0.0 | 2.0 | 0.03 | 0.03 | 0.03 | 90 | 1011.0 |
| 20260508055701 | 41 | 357 | 2.0 | 5.0 | 0.03 | 0.03 | 0.03 | 86 | 1011.2 |
| 20260508054701 | 42 | 111 | 2.0 | 6.0 | 0.03 | 0.03 | 0.02 | 78 | 1010.6 |
| 20260508053702 | 42 | 0 | 0.0 | 2.0 | 0.00 | 0.00 | 0.00 | 78 | 1011.1 |
| 20260508052702 | 42 | 348 | 1.0 | 2.0 | 0.00 | 0.00 | 0.00 | 77 | 1011.0 |
| 20260508051701 | 42 | 0 | 1.0 | 3.0 | 0.00 | 0.00 | 0.00 | 78 | 1011.1 |
| 20260508050701 | 41 | 0 | 0.0 | 0.0 | 0.00 | 0.00 | 0.00 | 75 | 1011.3 |
| 20260508050145 | 42 | 0 | 0.0 | 2.0 | 0.00 | 0.00 | 0.00 | 75 | 1011.3 |
| 20260508045914 | 42 | 0 | 0.0 | 2.0 | 0.00 | 0.00 | 0.00 | 75 | 1011.3 |
| 20260508044701 | 42 | 100 | 0.0 | 3.0 | 0.00 | 0.00 | 0.00 | 75 | 1011.1 |
| 20260508043702 | 41 | 0 | 0.0 | 0.0 | 0.00 | 0.00 | 0.00 | 78 | 1011.4 |
| 20260508042701 | 42 | 0 | 0.0 | 0.0 | 0.00 | 0.00 | 0.00 | 77 | 1011.3 |
| 20260508041703 | 42 | 0 | 0.0 | 2.0 | 0.00 | 0.00 | 0.00 | 74 | 1011.1 |
| 20260508040703 | 41 | 333 | 0.0 | 4.0 | 0.00 | 0.00 | 0.00 | 76 | 1010.9 |
| 20260508035703 | 42 | 0 | 0.0 | 0.0 | 0.00 | 0.00 | 0.00 | 72 | 1010.8 |
| 20260508035143 | 42 | 0 | 0.0 | 1.0 | 0.00 | 0.00 | 0.00 | 70 | 1010.9 |
| 20260508034703 | 42 | 0 | 0.0 | 1.0 | 0.00 | 0.00 | 0.00 | 70 | 1010.9 |
| 20260508034147 | 42 | 0 | 0.0 | 0.0 | 0.00 | 0.00 | 0.00 | 74 | 1010.9 |
| 20260508033914 | 42 | 0 | 0.0 | 0.0 | 0.00 | 0.00 | 0.00 | 74 | 1010.9 |
| 20260508033148 | 42 | 0 | 0.0 | 0.0 | 0.00 | 0.00 | 0.00 | 72 | 1010.7 |
| 20260508032958 | 42 | 0 | 0.0 | 1.0 | 0.00 | 0.00 | 0.00 | 73 | 1010.9 |
| 20260508032914 | 42 | 0 | 0.0 | 0.0 | 0.00 | 0.00 | 0.00 | 72 | 1010.7 |
| 20260508032530 | 42 | 0 | 0.0 | 1.0 | 0.00 | 0.00 | 0.00 | 73 | 1010.9 |
| 20260508030703 | 42 | 0 | 0.0 | 0.0 | 0.00 | 0.00 | 0.00 | 73 | 1011.0 |
| 20260508025704 | 42 | 0 | 0.0 | 0.0 | 0.00 | 0.00 | 0.00 | 75 | 1011.1 |
| 20260508024704 | 42 | 0 | 0.0 | 0.0 | 0.00 | 0.00 | 0.00 | 72 | 1011.2 |
| 20260508023703 | 43 | 0 | 0.0 | 0.0 | 0.00 | 0.00 | 0.00 | 71 | 1011.2 |
| 20260508022702 | 44 | 0 | 0.0 | 1.0 | 0.00 | 0.00 | 0.00 | 67 | 1011.0 |
| 20260508021704 | 44 | 0 | 0.0 | 0.0 | 0.00 | 0.00 | 0.00 | 63 | 1011.0 |
| 20260508020703 | 45 | 0 | 0.0 | 0.0 | 0.00 | 0.00 | 0.00 | 62 | 1010.9 |
| 20260508015702 | 46 | 0 | 0.0 | 2.0 | 0.00 | 0.00 | 0.00 | 60 | 1010.9 |
| 20260508014707 | 46 | 0 | 1.0 | 6.0 | 0.00 | 0.00 | 0.00 | 58 | 1010.9 |
| 20260508013701 | 47 | 296 | 1.0 | 6.0 | 0.00 | 0.00 | 0.00 | 57 | 1010.8 |
| 20260508012701 | 47 | 269 | 3.0 | 7.0 | 0.00 | 0.00 | 0.00 | 56 | 1010.8 |
| 20260508011701 | 48 | 271 | 1.0 | 9.0 | 0.00 | 0.00 | 0.00 | 53 | 1010.6 |
| 20260508010701 | 48 | 0 | 0.0 | 4.0 | 0.00 | 0.00 | 0.00 | 52 | 1010.5 |
| 20260508005701 | 49 | 0 | 2.0 | 7.0 | 0.00 | 0.00 | 0.00 | 50 | 1010.4 |
| 20260508004701 | 49 | 308 | 4.0 | 10.0 | 0.00 | 0.00 | 0.00 | 48 | 1010.2 |
| 20260508003701 | 50 | 342 | 2.0 | 7.0 | 0.00 | 0.00 | 0.00 | 46 | 1010.3 |
| 20260508002701 | 50 | 354 | 1.0 | 9.0 | 0.00 | 0.00 | 0.00 | 46 | 1010.2 |
| 20260508001700 | 50 | 136 | 2.0 | 7.0 | 0.00 | 0.00 | 0.00 | 45 | 1010.2 |
| 20260508000702 | 50 | 0 | 1.0 | 5.0 | 0.00 | 0.00 | 0.00 | 46 | 1010.1 |
| 20260507235702 | 50 | 330 | 2.0 | 9.0 | 0.00 | 0.00 | 0.00 | 46 | 1009.9 |
| 20260507235357 | 51 | 317 | 1.0 | 9.0 | 0.00 | 0.00 | 0.00 | 46 | 1009.9 |
| 20260507235236 | 51 | 317 | 1.0 | 9.0 | 0.00 | 0.00 | 0.00 | 46 | 1009.9 |
| 20260507234142 | 51 | 0 | 2.0 | 10.0 | 0.00 | 0.00 | 0.00 | 45 | 1010.1 |
| 20260507233912 | 51 | 0 | 2.0 | 10.0 | 0.00 | 0.00 | 0.00 | 45 | 1010.1 |
| 20260507232701 | 51 | 0 | 2.0 | 8.0 | 0.00 | 0.00 | 0.00 | 45 | 1010.1 |
| 20260507232352 | 52 | 284 | 2.0 | 9.0 | 0.00 | 0.00 | 0.00 | 44 | 1009.9 |
| 20260507232237 | 52 | 284 | 2.0 | 9.0 | 0.00 | 0.00 | 0.00 | 44 | 1009.9 |
| 20260507230700 | 52 | 303 | 2.0 | 9.0 | 0.00 | 0.00 | 0.00 | 44 | 1009.9 |
| 20260507225701 | 53 | 190 | 2.0 | 5.0 | 0.00 | 0.00 | 0.00 | 42 | 1009.8 |
| 20260507225359 | 53 | 0 | 1.0 | 6.0 | 0.00 | 0.00 | 0.00 | 44 | 1009.9 |
| 20260507225239 | 53 | 0 | 1.0 | 6.0 | 0.00 | 0.00 | 0.00 | 44 | 1009.9 |
| 20260507224354 | 53 | 218 | 2.0 | 6.0 | 0.00 | 0.00 | 0.00 | 43 | 1010.1 |
| 20260507224240 | 53 | 218 | 2.0 | 6.0 | 0.00 | 0.00 | 0.00 | 43 | 1010.1 |
| 20260507222702 | 52 | 0 | 1.0 | 7.0 | 0.00 | 0.00 | 0.00 | 43 | 1010.2 |
| 20260507221701 | 52 | 282 | 3.0 | 9.0 | 0.00 | 0.00 | 0.00 | 44 | 1010.2 |
| 20260507220702 | 53 | 0 | 1.0 | 6.0 | 0.00 | 0.00 | 0.00 | 42 | 1010.1 |
| 20260507215702 | 54 | 278 | 3.0 | 9.0 | 0.00 | 0.00 | 0.00 | 41 | 1010.1 |
| 20260507215642 | 53 | 281 | 3.0 | 6.0 | 0.00 | 0.00 | 0.00 | 42 | 1009.9 |
| 20260507214914 | 53 | 281 | 3.0 | 6.0 | 0.00 | 0.00 | 0.00 | 42 | 1009.9 |
| 20260507214151 | 52 | 87 | 3.0 | 8.0 | 0.00 | 0.00 | 0.00 | 43 | 1009.9 |
| 20260507213702 | 52 | 87 | 3.0 | 8.0 | 0.00 | 0.00 | 0.00 | 43 | 1009.9 |
| 20260507213617 | 51 | 318 | 4.0 | 10.0 | 0.00 | 0.00 | 0.00 | 43 | 1009.8 |
| 20260507212914 | 51 | 318 | 4.0 | 10.0 | 0.00 | 0.00 | 0.00 | 43 | 1009.8 |
| 20260507212554 | 52 | 277 | 3.0 | 8.0 | 0.00 | 0.00 | 0.00 | 42 | 1010.2 |
| 20260507211847 | 51 | 340 | 3.0 | 9.0 | 0.00 | 0.00 | 0.00 | 43 | 1010.1 |
| 20260507210913 | 52 | 277 | 3.0 | 8.0 | 0.00 | 0.00 | 0.00 | 42 | 1010.2 |
| 20260507205702 | 52 | 205 | 4.0 | 14.0 | 0.00 | 0.00 | 0.00 | 42 | 1010.2 |
| 20260507205619 | 54 | 304 | 4.0 | 13.0 | 0.00 | 0.00 | 0.00 | 39 | 1010.3 |
| 20260507204913 | 54 | 304 | 4.0 | 13.0 | 0.00 | 0.00 | 0.00 | 39 | 1010.3 |
| 20260507203702 | 53 | 201 | 4.0 | 12.0 | 0.00 | 0.00 | 0.00 | 39 | 1010.2 |
| 20260507202701 | 54 | 283 | 4.0 | 19.0 | 0.00 | 0.00 | 0.00 | 38 | 1010.4 |
| 20260507202403 | 52 | 280 | 4.0 | 12.0 | 0.00 | 0.00 | 0.00 | 42 | 1010.5 |
| 20260507202235 | 52 | 280 | 4.0 | 12.0 | 0.00 | 0.00 | 0.00 | 42 | 1010.5 |
| 20260507200701 | 53 | 290 | 3.0 | 9.0 | 0.00 | 0.00 | 0.00 | 42 | 1010.4 |
| 20260507195701 | 53 | 270 | 3.0 | 12.0 | 0.00 | 0.00 | 0.00 | 39 | 1010.5 |
| 20260507194701 | 53 | 259 | 3.0 | 10.0 | 0.00 | 0.00 | 0.00 | 41 | 1010.5 |
| 20260507193700 | 52 | 85 | 2.0 | 9.0 | 0.00 | 0.00 | 0.00 | 45 | 1010.5 |
| 20260507192701 | 53 | 244 | 2.0 | 9.0 | 0.00 | 0.00 | 0.00 | 42 | 1010.6 |
| 20260507191701 | 51 | 236 | 4.0 | 11.0 | 0.00 | 0.00 | 0.00 | 42 | 1010.6 |
| 20260507191140 | 51 | 315 | 3.0 | 10.0 | 0.00 | 0.00 | 0.00 | 46 | 1010.5 |
| 20260507190915 | 51 | 315 | 3.0 | 10.0 | 0.00 | 0.00 | 0.00 | 46 | 1010.5 |
| 20260507185700 | 51 | 213 | 4.0 | 13.0 | 0.00 | 0.00 | 0.00 | 47 | 1010.7 |
| 20260507185145 | 51 | 308 | 3.0 | 11.0 | 0.00 | 0.00 | 0.00 | 46 | 1010.8 |
| 20260507184912 | 51 | 308 | 3.0 | 11.0 | 0.00 | 0.00 | 0.00 | 46 | 1010.8 |
| 20260507184142 | 52 | 299 | 3.0 | 8.0 | 0.00 | 0.00 | 0.00 | 44 | 1010.6 |
| 20260507183701 | 52 | 299 | 3.0 | 8.0 | 0.00 | 0.00 | 0.00 | 44 | 1010.6 |
| 20260507182701 | 51 | 273 | 3.0 | 10.0 | 0.00 | 0.00 | 0.00 | 44 | 1010.8 |
| 20260507182150 | 51 | 343 | 4.0 | 11.0 | 0.00 | 0.00 | 0.00 | 44 | 1010.9 |
| 20260507181702 | 51 | 343 | 4.0 | 11.0 | 0.00 | 0.00 | 0.00 | 44 | 1010.9 |
| 20260507180702 | 51 | 304 | 4.0 | 10.0 | 0.00 | 0.00 | 0.00 | 45 | 1010.8 |
| 20260507175704 | 53 | 116 | 2.0 | 6.0 | 0.00 | 0.00 | 0.00 | 48 | 1010.8 |
| 20260507175143 | 52 | 184 | 3.0 | 9.0 | 0.00 | 0.00 | 0.00 | 47 | 1010.8 |
| 20260507174702 | 52 | 184 | 3.0 | 9.0 | 0.00 | 0.00 | 0.00 | 47 | 1010.8 |
| 20260507174619 | 52 | 321 | 3.0 | 11.0 | 0.00 | 0.00 | 0.00 | 45 | 1011.0 |
| 20260507173703 | 52 | 321 | 3.0 | 11.0 | 0.00 | 0.00 | 0.00 | 45 | 1011.0 |
| 20260507172702 | 52 | 293 | 4.0 | 12.0 | 0.00 | 0.00 | 0.00 | 46 | 1011.1 |
| 20260507172642 | 52 | 331 | 4.0 | 13.0 | 0.00 | 0.00 | 0.00 | 48 | 1011.0 |
| 20260507171702 | 52 | 331 | 4.0 | 13.0 | 0.00 | 0.00 | 0.00 | 48 | 1011.0 |
| 20260507171150 | 52 | 324 | 4.0 | 11.0 | 0.00 | 0.00 | 0.00 | 46 | 1011.2 |
| 20260507170702 | 52 | 324 | 4.0 | 11.0 | 0.00 | 0.00 | 0.00 | 46 | 1011.2 |
| 20260507165702 | 53 | 236 | 3.0 | 10.0 | 0.00 | 0.00 | 0.00 | 46 | 1011.2 |
| 20260507164703 | 52 | 288 | 3.0 | 10.0 | 0.00 | 0.00 | 0.00 | 47 | 1011.1 |
| 20260507164632 | 51 | 285 | 4.0 | 11.0 | 0.00 | 0.00 | 0.00 | 47 | 1011.1 |
| 20260507163703 | 51 | 285 | 4.0 | 11.0 | 0.00 | 0.00 | 0.00 | 47 | 1011.1 |
| 20260507162702 | 51 | 213 | 2.0 | 8.0 | 0.00 | 0.00 | 0.00 | 48 | 1011.3 |
| 20260507161702 | 52 | 285 | 5.0 | 11.0 | 0.00 | 0.00 | 0.00 | 44 | 1011.2 |
| 20260507160702 | 51 | 0 | 4.0 | 12.0 | 0.00 | 0.00 | 0.00 | 47 | 1011.2 |
| 20260507160148 | 52 | 317 | 3.0 | 9.0 | 0.00 | 0.00 | 0.00 | 46 | 1011.2 |
| 20260507155704 | 52 | 317 | 3.0 | 9.0 | 0.00 | 0.00 | 0.00 | 46 | 1011.2 |
| 20260507155151 | 52 | 291 | 2.0 | 9.0 | 0.00 | 0.00 | 0.00 | 44 | 1011.1 |
| 20260507154703 | 52 | 291 | 2.0 | 9.0 | 0.00 | 0.00 | 0.00 | 44 | 1011.1 |
| 20260507153704 | 52 | 0 | 2.0 | 8.0 | 0.00 | 0.00 | 0.00 | 48 | 1011.2 |
| 20260507152702 | 51 | 256 | 3.0 | 11.0 | 0.00 | 0.00 | 0.00 | 45 | 1011.0 |
| 20260507151706 | 53 | 239 | 1.0 | 6.0 | 0.00 | 0.00 | 0.00 | 46 | 1011.0 |
| 20260507150703 | 52 | 282 | 2.0 | 8.0 | 0.00 | 0.00 | 0.00 | 46 | 1011.1 |
| 20260507150201 | 53 | 332 | 2.0 | 11.0 | 0.00 | 0.00 | 0.00 | 47 | 1011.1 |
| 20260507145702 | 53 | 332 | 2.0 | 11.0 | 0.00 | 0.00 | 0.00 | 47 | 1011.1 |
| 20260507144702 | 53 | 266 | 2.0 | 8.0 | 0.00 | 0.00 | 0.00 | 45 | 1011.2 |
| 20260507143701 | 52 | 324 | 2.0 | 6.0 | 0.00 | 0.00 | 0.00 | 49 | 1011.2 |
| 20260507142702 | 53 | 0 | 2.0 | 9.0 | 0.00 | 0.00 | 0.00 | 47 | 1011.2 |
| 20260507142145 | 52 | 338 | 2.0 | 9.0 | 0.00 | 0.00 | 0.00 | 47 | 1011.2 |
| 20260507141913 | 52 | 338 | 2.0 | 9.0 | 0.00 | 0.00 | 0.00 | 47 | 1011.2 |
| 20260507140701 | 52 | 162 | 2.0 | 5.0 | 0.00 | 0.00 | 0.00 | 46 | 1011.3 |
| 20260507135701 | 52 | 256 | 2.0 | 8.0 | 0.00 | 0.00 | 0.00 | 48 | 1011.4 |
| 20260507134702 | 51 | 302 | 4.0 | 10.0 | 0.00 | 0.00 | 0.00 | 49 | 1011.5 |
| 20260507133702 | 51 | 301 | 2.0 | 8.0 | 0.00 | 0.00 | 0.00 | 49 | 1011.5 |
| 20260507133133 | 51 | 132 | 1.0 | 5.0 | 0.00 | 0.00 | 0.00 | 52 | 1011.4 |
| 20260507132912 | 51 | 132 | 1.0 | 5.0 | 0.00 | 0.00 | 0.00 | 52 | 1011.4 |
| 20260507132148 | 50 | 230 | 2.0 | 6.0 | 0.00 | 0.00 | 0.00 | 51 | 1011.4 |
| 20260507131912 | 50 | 230 | 2.0 | 6.0 | 0.00 | 0.00 | 0.00 | 51 | 1011.4 |
| 20260507130701 | 50 | 313 | 1.0 | 6.0 | 0.00 | 0.00 | 0.00 | 51 | 1011.4 |
| 20260507130619 | 49 | 0 | 2.0 | 8.0 | 0.00 | 0.00 | 0.00 | 52 | 1011.3 |
| 20260507125912 | 49 | 0 | 2.0 | 8.0 | 0.00 | 0.00 | 0.00 | 52 | 1011.3 |
| 20260507124701 | 49 | 308 | 1.0 | 5.0 | 0.00 | 0.00 | 0.00 | 51 | 1011.3 |
| 20260507123702 | 48 | 215 | 1.0 | 4.0 | 0.00 | 0.00 | 0.00 | 56 | 1011.4 |
| 20260507123148 | 47 | 319 | 2.0 | 6.0 | 0.00 | 0.00 | 0.00 | 57 | 1011.5 |
| 20260507122914 | 47 | 319 | 2.0 | 6.0 | 0.00 | 0.00 | 0.00 | 57 | 1011.5 |
| 20260507122148 | 47 | 328 | 0.0 | 3.0 | 0.00 | 0.00 | 0.00 | 59 | 1011.6 |
| 20260507121914 | 47 | 328 | 0.0 | 3.0 | 0.00 | 0.00 | 0.00 | 59 | 1011.6 |
| 20260507121237 | 40 | 0 | 0.0 | 0.0 | 0.00 | 0.00 | 0.00 | 87 | 1011.6 |
| 20260507121051 | 42 | 60 | 0.0 | 2.0 | 0.00 | 0.00 | 0.00 | 80 | 1011.6 |
| 20260507120742 | 46 | 0 | 0.0 | 2.0 | 0.00 | 0.00 | 0.00 | 69 | 1011.6 |
| 20260507114914 | 40 | 0 | 0.0 | 0.0 | 0.00 | 0.00 | 0.00 | 87 | 1011.6 |
| 20260507114143 | 37 | 0 | 0.0 | 0.0 | 0.00 | 0.00 | 0.00 | 92 | 1011.5 |
| 20260507113916 | 37 | 0 | 0.0 | 0.0 | 0.00 | 0.00 | 0.00 | 92 | 1011.5 |
| 20260507113142 | 36 | 0 | 0.0 | 0.0 | 0.00 | 0.00 | 0.00 | 94 | 1011.5 |
| 20260507112914 | 36 | 0 | 0.0 | 0.0 | 0.00 | 0.00 | 0.00 | 94 | 1011.5 |
| 20260507111702 | 35 | 0 | 0.0 | 0.0 | 0.00 | 0.00 | 0.00 | 95 | 1011.4 |
| 20260507110702 | 35 | 0 | 0.0 | 0.0 | 0.00 | 0.00 | 0.00 | 97 | 1011.4 |
| 20260507105701 | 34 | 0 | 0.0 | 0.0 | 0.00 | 0.00 | 0.00 | 97 | 1011.3 |
| 20260507105149 | 34 | 0 | 0.0 | 0.0 | 0.00 | 0.00 | 0.00 | 97 | 1011.2 |
| 20260507104913 | 34 | 0 | 0.0 | 0.0 | 0.00 | 0.00 | 0.00 | 97 | 1011.2 |
| 20260507103702 | 34 | 0 | 0.0 | 0.0 | 0.00 | 0.00 | 0.00 | 97 | 1011.1 |
| 20260507102700 | 34 | 0 | 0.0 | 0.0 | 0.00 | 0.00 | 0.00 | 96 | 1011.1 |
| 20260507102147 | 34 | 0 | 0.0 | 0.0 | 0.00 | 0.01 | 0.00 | 96 | 1011.2 |
| 20260507101701 | 34 | 0 | 0.0 | 0.0 | 0.00 | 0.01 | 0.00 | 96 | 1011.2 |
| 20260507101624 | 34 | 0 | 0.0 | 0.0 | 0.00 | 0.01 | 0.00 | 95 | 1011.2 |
| 20260507100702 | 34 | 0 | 0.0 | 0.0 | 0.00 | 0.01 | 0.00 | 95 | 1011.2 |
| 20260507095701 | 35 | 0 | 0.0 | 0.0 | 0.00 | 0.01 | 0.00 | 96 | 1011.2 |
| 20260507095147 | 35 | 0 | 0.0 | 0.0 | 0.00 | 0.01 | 0.00 | 95 | 1011.2 |
| 20260507094913 | 35 | 0 | 0.0 | 0.0 | 0.00 | 0.01 | 0.00 | 95 | 1011.2 |
| 20260507094145 | 35 | 0 | 0.0 | 0.0 | 0.00 | 0.01 | 0.00 | 95 | 1011.2 |
| 20260507093702 | 35 | 0 | 0.0 | 0.0 | 0.00 | 0.01 | 0.00 | 95 | 1011.2 |
| 20260507093628 | 35 | 0 | 0.0 | 0.0 | 0.00 | 0.01 | 0.00 | 94 | 1011.2 |
| 20260507092701 | 35 | 0 | 0.0 | 0.0 | 0.00 | 0.01 | 0.00 | 94 | 1011.2 |
| 20260507092146 | 35 | 0 | 0.0 | 0.0 | 0.00 | 0.01 | 0.00 | 94 | 1011.3 |
| 20260507091913 | 35 | 0 | 0.0 | 0.0 | 0.00 | 0.01 | 0.00 | 94 | 1011.3 |
| 20260507090701 | 35 | 0 | 0.0 | 0.0 | 0.00 | 0.01 | 0.00 | 94 | 1011.4 |
| 20260507090140 | 35 | 0 | 0.0 | 0.0 | 0.00 | 0.01 | 0.00 | 94 | 1011.5 |
| 20260507085913 | 35 | 0 | 0.0 | 0.0 | 0.00 | 0.01 | 0.00 | 94 | 1011.5 |